CAPE
1703 1673 1602 1463 1283 875 744 486 437 411 511 523 183 146 7 17 40 12 13 20 28 37 14 11 18 4 14 17 11 0 7 11 0 1 0 0 2 0 0 21 39 5 0
1812 1762 1644 1510 1209 1041 988 894 620 419 652 753 451 207 22 3 22 19 49 35 33 21 22 14 12 9 1 4 13 10 0 3 1 5 0 0 0 0 1 1 0 0 0
1620 1361 1177 1146 1023 657 338 159 266 294 420 280 232 162 19 17 11 10 44 50 33 34 6 17 20 29 4 16 2 4 0 1 5 0 0 0 0 10 2 5 5 0 0
1425 1417 992 1022 792 594 257 221 223 88 146 198 163 70 24 107 35 4 1 7 20 40 35 22 32 14 7 7 5 0 0 4 0 0 0 0 15 0 0 0 0 0 0
1492 1432 1125 863 861 773 598 408 388 486 232 245 377 384 393 61 111 80 25 38 18 39 73 21 5 4 11 9 0 1 0 0 1 0 0 6 0 0 0 0 0 0 0
1062 1310 1303 1299 1129 956 764 792 835 613 513 428 541 453 632 249 260 202 94 70 70 46 73 13 26 16 12 7 0 4 1 0 3 0 0 0 0 0 0 0 0 0 0
314 766 591 404 415 507 941 981 922 696 583 450 310 207 225 220 173 162 130 90 230 49 46 41 19 12 21 1 2 0 0 0 0 0 0 4 0 16 16 6 0 0 0
266 501 441 286 212 266 330 411 493 459 328 378 342 326 300 247 126 113 90 127 180 102 82 47 61 27 20 3 13 0 0 0 0 0 25 26 31 45 17 21 5 7 4
1 0 0 3 0 12 300 408 429 386 427 465 430 412 404 206 131 66 43 42 56 73 92 11 48 10 6 0 10 0 0 0 2 28 42 48 51 75 28 44 22 11 4
6 19 17 48 31 27 20 177 326 289 376 493 423 395 411 303 127 57 47 104 79 68 104 58 27 15 8 15 3 0 0 0 8 3 41 0 0 24 30 69 55 19 8
25 15 19 12 0 3 34 130 180 183 240 273 243 247 308 264 160 66 31 72 38 33 13 23 28 19 11 14 2 17 7 13 23 22 9 0 0 0 21 48 41 28 18
9 7 1 0 0 0 3 27 68 83 111 174 181 159 193 259 134 50 10 3 15 32 12 15 18 18 12 0 9 7 6 25 35 45 19 0 0 0 1 16 28 24 10
52 37 20 22 8 10 0 30 47 29 30 87 165 188 197 96 77 81 1 19 36 11 6 7 16 11 0 0 1 12 8 30 32 1 0 0 0 0 15 8 23 27 16
30 16 31 74 8 20 84 118 111 73 67 47 141 172 197 114 40 20 34 26 10 5 1 6 5 2 4 2 8 22 10 0 0 0 0 2 0 3 25 19 29 22 8
97 105 53 38 60 65 59 57 29 12 39 113 176 153 142 150 44 66 63 67 42 13 11 14 9 0 0 0 10 29 22 8 5 1 4 21 10 28 31 43 35 10 1
30 11 11 9 6 36 36 19 40 41 45 162 282 218 288 282 134 113 94 69 31 22 14 12 0 0 3 0 17 0 0 0 2 13 13 25 37 42 26 20 4 0 0
24 25 0 0 0 0 9 0 0 33 11 35 62 225 312 294 240 154 100 67 28 25 22 13 0 6 0 0 0 0 0 0 0 8 11 21 23 7 5 0 0 0 0
73 59 36 39 36 51 43 73 29 86 75 93 98 181 292 282 219 128 140 66 16 26 15 0 2 0 0 0 0 0 0 0 0 0 0 0 3 2 0 0 0 0 0
92 141 81 97 17 27 30 42 45 38 24 13 37 67 108 280 188 51 54 14 2 1 0 2 0 0 0 0 0 0 0 0 0 0 0 2 1 0 0 0 0 0 0
7 126 121 100 28 4 12 36 40 43 21 0 14 13 14 71 85 27 25 1 1 0 0 0 0 0 0 0 0 0 0 0 0 0 0 0 0 0 0 0 0 0 0
3 17 26 77 72 36 45 31 24 32 10 7 13 32 47 57 45 2 0 0 1 4 0 0 0 0 0 0 0 0 0 0 0 0 0 0 0 0 0 0 0 0 0
13 7 35 84 54 36 23 18 7 0 9 2 16 17 32 34 22 6 1 0 0 0 0 0 0 0 0 0 0 0 0 0 0 0 0 0 0 0 0 0 0 0 0
0 8 24 10 24 23 12 0 0 3 0 0 0 7 16 17 10 0 0 0 0 0 0 0 0 0 0 0 0 0 0 0 0 0 0 0 0 0 0 0 0 0 0
0 0 17 24 24 11 0 1 2 0 0 0 0 3 10 15 2 0 0 0 1 3 1 0 0 0 0 0 0 0 0 0 0 0 0 0 0 0 0 0 0 0 0
0 6 30 19 8 0 2 0 0 0 0 0 4 0 0 0 0 3 0 0 0 0 0 0 0 0 0 0 0 0 0 0 0 0 0 0 0 0 0 0 0 0 0
7 18 22 6 0 0 0 0 0 0 0 0 0 0 2 5 0 0 0 0 0 0 0 0 0 0 0 0 0 0 0 0 0 0 0 0 0 0 0 0 0 0 0
CIN
-90 -69 -42 -18 -16 -42 -42 -66 -54 -49 -45 -50 -101 -81 -126 -71 -54 -31 -15 -20 -3 -5 -8 -10 -7 -12 -4 -1 -4 0 0 0 0 0 0 0 -1 0 0 -52 -20 -16 0
-64 -59 -52 -29 -24 -22 -8 -6 -13 -19 -3 -3 -19 -53 -147 -16 -55 -11 -35 -2 -1 -4 -4 -2 -12 -10 -3 -14 -1 0 0 0 0 -1 0 0 0 0 0 -1 -1 0 0
-57 -41 -45 -55 -56 -62 -85 -86 -55 -36 -12 -18 -23 -31 -92 -13 -5 -1 -3 0 -4 -8 -4 -1 -3 -3 -1 -5 -1 -1 0 -1 0 -1 0 0 0 -1 -1 0 0 0 0
-34 -26 -44 -49 -62 -75 -108 -104 -80 -86 -43 -18 -14 -31 -33 -3 -1 -11 -2 -5 -4 -4 -3 -1 -1 -4 0 0 0 -4 0 0 0 0 0 0 -1 0 0 0 0 0 0
-30 -26 -34 -23 -19 -42 -54 -73 -36 -22 -37 -23 -4 -1 0 -13 -2 -2 -1 -9 -4 -3 -1 -4 -6 -4 -1 0 0 -3 0 0 -1 0 0 0 0 0 0 0 0 0 0
-38 -22 -14 -5 -5 -12 -19 -10 -10 -12 -1 -2 0 0 0 0 0 0 -4 -6 -1 0 -2 -1 -40 -7 0 -5 0 -6 0 0 -1 0 0 0 0 0 0 -1 0 0 0
-43 -24 -20 -31 -31 -24 -10 -5 -6 -11 -13 -19 -7 -22 -6 -5 -7 -3 -2 -14 0 -21 -4 -22 -24 0 0 0 -1 -1 0 0 0 0 0 -1 0 -4 -1 -14 0 0 0
-38 -17 -25 -39 -36 -31 -28 -25 -19 -16 -19 -14 -12 -10 -9 -27 -43 -34 -29 -17 -6 -10 -9 -27 -24 0 0 0 -1 -1 0 0 0 0 -6 -11 -8 -1 0 -12 -12 -4 -13
-38 0 0 -32 -8 -47 -32 -14 -13 -23 -20 -18 -11 -7 -6 -19 -41 -91 -76 -73 -58 -28 -8 -37 -21 -1 -4 0 -1 0 0 0 0 -20 -18 -13 -18 -10 -9 -10 -9 0 -5
-13 -2 -25 -41 -29 -18 -31 -53 -33 -34 -34 -17 -24 -25 -11 -13 -12 -68 -87 -22 -29 -34 -21 -25 0 -1 -1 0 -2 0 0 0 0 -1 -1 0 0 -5 -6 -7 -5 -8 -22
-1 -1 -8 -22 0 -4 -24 -36 -20 -25 -38 -39 -45 -43 -34 -15 -12 -43 -93 -42 -43 -35 -32 -14 0 -1 0 0 0 -1 -9 -6 -9 -4 -11 0 0 0 -16 -24 -15 -11 -19
-16 -1 0 0 0 -1 -18 -73 -65 -40 -54 -31 -30 -31 -57 -48 -42 -33 -73 -114 -56 -45 -53 -20 0 0 0 0 0 0 -25 -18 -15 -13 -25 0 0 0 -5 -12 -10 -15 -7
-18 -19 -13 -105 0 -2 0 -10 -27 -31 -51 -56 -42 -24 -44 -20 -83 -39 -1 -20 -10 -30 -1 -1 0 0 0 -1 -2 -3 -3 -27 -19 -5 0 0 0 0 -7 -3 -10 -3 -4
-105 -61 -28 -52 -34 -6 -7 -5 -16 -20 -57 -59 -72 -39 -47 -33 -44 -77 -33 -3 -23 -8 0 0 -2 -5 -7 -2 -8 -18 -33 -1 0 0 0 -16 0 -9 -9 0 -4 -3 -4
-51 -47 -59 -77 -9 -10 -9 -14 -21 -106 -124 -126 -61 -53 -42 -28 -27 -48 -28 -4 -10 -1 0 0 0 0 0 0 -10 -33 -38 -17 -5 -11 -1 0 -7 -9 -8 -3 0 0 -1
-30 -8 -9 -8 -19 -9 -6 -7 -23 -19 -11 -148 -113 -68 -75 -58 -54 -29 -18 -6 -6 -1 0 0 0 0 -2 0 -46 -5 0 0 -7 -7 -7 -5 -3 -11 -3 0 -2 -1 0
-10 -10 -1 0 0 0 -37 0 0 -27 -26 -25 -208 -180 -126 -87 -61 -39 -13 -9 -5 0 0 -2 0 -43 0 0 0 0 0 0 0 -23 -16 -10 -2 -2 -1 -2 0 0 0
-14 -11 -10 -15 -62 -30 -16 -7 -21 -16 -16 -25 -21 -150 -90 -86 -56 -27 0 -7 -4 -1 -1 -2 -27 -11 0 0 0 0 0 0 0 0 0 0 -3 -2 0 0 0 0 0
-29 -22 -18 -28 -20 -45 -18 -28 -14 -10 -41 -30 -66 -82 -59 -30 -33 -40 -1 0 0 0 0 -13 0 0 0 0 0 0 0 0 0 0 0 -2 -1 0 0 0 0 0 0
-32 -28 -21 -11 -27 -4 -7 -18 -41 -14 -9 -1 -1 -7 -74 -36 -33 -8 -2 -2 0 0 0 0 0 0 0 0 0 0 0 0 0 0 0 0 0 0 0 0 0 0 0
-9 -29 -30 -7 -8 -7 -10 -9 -3 -19 -25 -7 -46 -26 -30 -19 -2 -5 0 0 -1 -13 0 0 0 0 0 0 0 0 0 0 0 0 0 0 0 0 0 0 0 0 0
-3 -3 -33 -8 -15 -23 -32 -9 -59 0 -6 -23 -11 -23 -15 0 -1 0 0 0 0 0 0 0 0 0 0 0 0 0 0 0 0 0 0 0 0 0 0 0 0 0 0
0 -1 -15 -7 -49 -39 -25 -1 0 -10 0 0 0 -1 -1 0 -1 0 0 0 0 0 0 0 0 0 0 0 0 0 0 0 0 0 0 0 0 0 0 0 0 0 0
0 0 -32 -53 -59 -54 0 -1 -2 0 0 0 0 0 -1 0 -1 0 0 0 0 0 0 0 0 0 0 0 0 0 0 0 0 0 0 0 0 0 0 0 0 0 0
0 -4 -62 -86 -69 0 0 0 0 0 0 0 -4 0 0 0 0 -26 0 0 0 0 0 0 0 0 0 0 0 0 0 0 0 0 0 0 0 0 0 0 0 0 0
-4 -66 -131 -103 0 0 0 0 0 0 0 0 0 0 -12 -8 0 0 0 0 0 0 0 0 0 0 0 0 0 0 0 0 0 0 0 0 0 0 0 0 0 0 0
Wind_Speed
36 36 36 36 34 35 35 34 34 33 33 33 35 37 nan nan nan nan nan nan nan nan nan nan nan nan nan nan nan nan nan nan nan nan nan nan nan nan nan nan nan nan nan
36 37 37 37 38 40 38 37 36 34 34 34 36 38 nan nan nan nan nan nan nan nan nan nan nan nan nan nan nan nan nan nan nan nan nan nan nan nan nan nan nan nan nan
39 41 37 38 40 39 38 38 39 39 39 37 38 40 nan nan nan nan nan nan nan nan nan nan nan nan nan nan nan nan nan nan nan nan nan nan nan nan nan nan nan nan nan
42 45 43 39 39 38 38 40 41 nan 41 41 42 nan nan 41 nan nan nan nan nan nan nan nan nan nan nan nan nan nan nan nan nan nan nan nan nan nan nan nan nan nan nan
46 43 41 41 42 41 40 42 44 44 42 43 46 44 44 nan 39 nan nan nan nan nan nan nan nan nan nan nan nan nan nan nan nan nan nan nan nan nan nan nan nan nan nan
50 46 42 43 43 43 44 45 45 45 45 46 45 47 46 41 37 34 nan nan nan nan nan nan nan nan nan nan nan nan nan nan nan nan nan nan nan nan nan nan nan nan nan
54 51 46 47 48 48 49 51 49 48 50 49 47 47 45 41 38 34 33 nan 32 nan nan nan nan nan nan nan nan nan nan nan nan nan nan nan nan nan nan nan nan nan nan
56 55 50 48 49 49 50 52 51 49 48 47 45 44 41 38 35 34 nan 32 35 37 nan nan nan nan nan nan nan nan nan nan nan nan nan nan nan nan nan nan nan nan nan
nan nan nan nan nan nan 52 52 46 49 48 46 43 40 36 34 36 nan nan nan nan nan nan nan nan nan nan nan nan nan nan nan nan nan nan nan nan nan nan nan nan nan nan
nan nan nan nan nan nan nan 44 48 50 51 45 39 37 37 36 38 nan nan 33 nan nan 37 nan nan nan nan nan nan nan nan nan nan nan nan nan nan nan nan nan nan nan nan
nan nan nan nan nan nan nan 54 54 36 34 39 35 35 36 37 39 nan nan nan nan nan nan nan nan nan nan nan nan nan nan nan nan nan nan nan nan nan nan nan nan nan nan
nan nan nan nan nan nan nan nan nan nan 40 39 37 37 40 37 37 nan nan nan nan nan nan nan nan nan nan nan nan nan nan nan nan nan nan nan nan nan nan nan nan nan nan
nan nan nan nan nan nan nan nan nan nan nan nan 47 51 38 nan nan nan nan nan nan nan nan nan nan nan nan nan nan nan nan nan nan nan nan nan nan nan nan nan nan nan nan
nan nan nan nan nan nan nan 61 68 nan nan nan 61 66 45 46 nan nan nan nan nan nan nan nan nan nan nan nan nan nan nan nan nan nan nan nan nan nan nan nan nan nan nan
nan 56 nan nan nan nan nan nan nan nan nan 70 66 65 56 46 nan nan nan nan nan nan nan nan nan nan nan nan nan nan nan nan nan nan nan nan nan nan nan nan nan nan nan
nan nan nan nan nan nan nan nan nan nan nan 43 42 48 51 49 44 39 nan nan nan nan nan nan nan nan nan nan nan nan nan nan nan nan nan nan nan nan nan nan nan nan nan
nan nan nan nan nan nan nan nan nan nan nan nan nan 26 31 33 34 35 33 nan nan nan nan nan nan nan nan nan nan nan nan nan nan nan nan nan nan nan nan nan nan nan nan
nan nan nan nan nan nan nan nan nan nan nan nan nan 24 22 29 32 26 28 nan nan nan nan nan nan nan nan nan nan nan nan nan nan nan nan nan nan nan nan nan nan nan nan
nan 34 nan nan nan nan nan nan nan nan nan nan nan nan 24 13 13 nan nan nan nan nan nan nan nan nan nan nan nan nan nan nan nan nan nan nan nan nan nan nan nan nan nan
nan 21 17 14 nan nan nan nan nan nan nan nan nan nan nan nan nan nan nan nan nan nan nan nan nan nan nan nan nan nan nan nan nan nan nan nan nan nan nan nan nan nan nan
nan nan nan nan nan nan nan nan nan nan nan nan nan nan nan nan nan nan nan nan nan nan nan nan nan nan nan nan nan nan nan nan nan nan nan nan nan nan nan nan nan nan nan
nan nan nan nan nan nan nan nan nan nan nan nan nan nan nan nan nan nan nan nan nan nan nan nan nan nan nan nan nan nan nan nan nan nan nan nan nan nan nan nan nan nan nan
nan nan nan nan nan nan nan nan nan nan nan nan nan nan nan nan nan nan nan nan nan nan nan nan nan nan nan nan nan nan nan nan nan nan nan nan nan nan nan nan nan nan nan
nan nan nan nan nan nan nan nan nan nan nan nan nan nan nan nan nan nan nan nan nan nan nan nan nan nan nan nan nan nan nan nan nan nan nan nan nan nan nan nan nan nan nan
nan nan nan nan nan nan nan nan nan nan nan nan nan nan nan nan nan nan nan nan nan nan nan nan nan nan nan nan nan nan nan nan nan nan nan nan nan nan nan nan nan nan nan
nan nan nan nan nan nan nan nan nan nan nan nan nan nan nan nan nan nan nan nan nan nan nan nan nan nan nan nan nan nan nan nan nan nan nan nan nan nan nan nan nan nan nan
Wind_Direction
303 299 297 295 295 294 295 297 298 295 296 299 303 305 nan nan nan nan nan nan nan nan nan nan nan nan nan nan nan nan nan nan nan nan nan nan nan nan nan nan nan nan nan
302 300 302 298 296 295 295 297 296 294 291 295 300 305 nan nan nan nan nan nan nan nan nan nan nan nan nan nan nan nan nan nan nan nan nan nan nan nan nan nan nan nan nan
293 296 296 298 297 296 294 294 296 299 297 295 297 301 nan nan nan nan nan nan nan nan nan nan nan nan nan nan nan nan nan nan nan nan nan nan nan nan nan nan nan nan nan
304 302 301 299 299 298 295 295 297 nan 297 296 299 nan nan 302 nan nan nan nan nan nan nan nan nan nan nan nan nan nan nan nan nan nan nan nan nan nan nan nan nan nan nan
300 299 301 302 299 299 298 298 296 297 301 302 303 302 305 nan 302 nan nan nan nan nan nan nan nan nan nan nan nan nan nan nan nan nan nan nan nan nan nan nan nan nan nan
293 297 297 297 297 299 299 299 297 295 298 301 301 302 303 302 303 305 nan nan nan nan nan nan nan nan nan nan nan nan nan nan nan nan nan nan nan nan nan nan nan nan nan
285 287 292 294 293 290 296 296 296 297 299 301 302 301 301 298 304 303 310 nan 307 nan nan nan nan nan nan nan nan nan nan nan nan nan nan nan nan nan nan nan nan nan nan
277 275 280 296 292 292 290 290 288 290 296 297 298 300 302 300 298 294 nan 300 304 306 nan nan nan nan nan nan nan nan nan nan nan nan nan nan nan nan nan nan nan nan nan
nan nan nan nan nan nan 292 292 290 294 294 294 296 298 298 293 296 nan nan nan nan nan nan nan nan nan nan nan nan nan nan nan nan nan nan nan nan nan nan nan nan nan nan
nan nan nan nan nan nan nan 287 295 297 290 286 284 289 294 292 292 nan nan 290 nan nan 296 nan nan nan nan nan nan nan nan nan nan nan nan nan nan nan nan nan nan nan nan
nan nan nan nan nan nan nan 283 288 282 285 284 281 284 289 293 294 nan nan nan nan nan nan nan nan nan nan nan nan nan nan nan nan nan nan nan nan nan nan nan nan nan nan
nan nan nan nan nan nan nan nan nan nan 276 275 272 282 282 279 282 nan nan nan nan nan nan nan nan nan nan nan nan nan nan nan nan nan nan nan nan nan nan nan nan nan nan
nan nan nan nan nan nan nan nan nan nan nan nan 274 289 278 nan nan nan nan nan nan nan nan nan nan nan nan nan nan nan nan nan nan nan nan nan nan nan nan nan nan nan nan
nan nan nan nan nan nan nan 278 277 nan nan nan 279 284 287 276 nan nan nan nan nan nan nan nan nan nan nan nan nan nan nan nan nan nan nan nan nan nan nan nan nan nan nan
nan 288 nan nan nan nan nan nan nan nan nan 277 276 276 280 273 nan nan nan nan nan nan nan nan nan nan nan nan nan nan nan nan nan nan nan nan nan nan nan nan nan nan nan
nan nan nan nan nan nan nan nan nan nan nan 288 292 281 269 262 265 274 nan nan nan nan nan nan nan nan nan nan nan nan nan nan nan nan nan nan nan nan nan nan nan nan nan
nan nan nan nan nan nan nan nan nan nan nan nan nan 301 291 267 269 271 276 nan nan nan nan nan nan nan nan nan nan nan nan nan nan nan nan nan nan nan nan nan nan nan nan
nan nan nan nan nan nan nan nan nan nan nan nan nan 281 287 286 269 267 270 nan nan nan nan nan nan nan nan nan nan nan nan nan nan nan nan nan nan nan nan nan nan nan nan
nan 299 nan nan nan nan nan nan nan nan nan nan nan nan 260 258 259 nan nan nan nan nan nan nan nan nan nan nan nan nan nan nan nan nan nan nan nan nan nan nan nan nan nan
nan 307 312 291 nan nan nan nan nan nan nan nan nan nan nan nan nan nan nan nan nan nan nan nan nan nan nan nan nan nan nan nan nan nan nan nan nan nan nan nan nan nan nan
nan nan nan nan nan nan nan nan nan nan nan nan nan nan nan nan nan nan nan nan nan nan nan nan nan nan nan nan nan nan nan nan nan nan nan nan nan nan nan nan nan nan nan
nan nan nan nan nan nan nan nan nan nan nan nan nan nan nan nan nan nan nan nan nan nan nan nan nan nan nan nan nan nan nan nan nan nan nan nan nan nan nan nan nan nan nan
nan nan nan nan nan nan nan nan nan nan nan nan nan nan nan nan nan nan nan nan nan nan nan nan nan nan nan nan nan nan nan nan nan nan nan nan nan nan nan nan nan nan nan
nan nan nan nan nan nan nan nan nan nan nan nan nan nan nan nan nan nan nan nan nan nan nan nan nan nan nan nan nan nan nan nan nan nan nan nan nan nan nan nan nan nan nan
nan nan nan nan nan nan nan nan nan nan nan nan nan nan nan nan nan nan nan nan nan nan nan nan nan nan nan nan nan nan nan nan nan nan nan nan nan nan nan nan nan nan nan
nan nan nan nan nan nan nan nan nan nan nan nan nan nan nan nan nan nan nan nan nan nan nan nan nan nan nan nan nan nan nan nan nan nan nan nan nan nan nan nan nan nan nan